WF3W Weather Reports


Display with metric or nautical units.
time (UTC)temp
F
wind
direction
speed
MPH
gust
MPH
rain 1hr
in
rain 24hr
in
rain mn
in
humidity
%
barometer
mb
20210621180328 86 235 2.0 5.0 0.00 0.00 0.00 70 1006.4
20210621173342 85 235 2.0 4.0 0.00 0.00 0.00 72 1006.4
20210621170333 84 235 1.0 4.0 0.00 0.00 0.00 73 1006.7
20210621163324 84 235 1.0 4.0 0.00 0.00 0.00 74 1006.5
20210621160336 81 235 0.0 5.0 0.00 0.00 0.00 82 1007.6
20210621153328 80 235 0.0 2.0 0.00 0.00 0.00 82 1007.8
20210621150322 79 235 1.0 4.0 0.00 0.00 0.00 84 1008.1
20210621143333 79 235 1.0 4.0 0.00 0.00 0.00 86 1008.6
20210621140324 78 235 0.0 2.0 0.00 0.00 0.00 87 1008.8
20210621133330 77 235 0.0 0.0 0.00 0.00 0.00 87 1008.7
20210621053325 77 235 0.0 1.0 0.00 0.00 0.00 87 1008.5
20210621013325 82 235 0.0 2.0 0.00 0.00 0.00 72 1009.9
20210621010338 83 235 1.0 3.0 0.00 0.00 0.00 71 1009.9
20210621003330 84 235 1.0 3.0 0.00 0.01 0.00 68 1009.4
20210621000323 86 235 1.0 6.0 0.00 0.01 0.00 63 1009.4
20210620233332 87 235 1.0 4.0 0.00 0.01 0.00 59 1009.4
20210620230326 88 235 0.0 2.0 0.00 0.01 0.00 58 1009.2
20210620223339 89 235 1.0 4.0 0.00 0.02 0.00 57 1009.1
20210620220333 89 235 1.0 5.0 0.00 0.02 0.00 59 1009.2
20210620213325 90 234 0.0 3.0 0.00 0.02 0.00 56 1009.4
20210620210339 89 234 1.0 4.0 0.00 0.02 0.00 57 1009.5
20210620203332 89 235 0.0 5.0 0.00 0.03 0.00 58 1009.9
20210620200325 88 235 1.0 6.0 0.00 0.03 0.00 58 1009.9
20210620193338 88 234 1.0 5.0 0.00 0.03 0.00 60 1010.0
20210620190330 88 234 1.0 3.0 0.00 0.03 0.00 61 1010.1